Location: McFarlands Corners
(41.4117°N, 81.3382°W)
Time: 14:01:09
(UTC+00:00)

Courier 1B Rocket - Pass Details

Date: 24 February 2026
Orbit: 920 x 1201 km, 28.2° (Epoch: 10 March)

Event Time Altitude Azimuth Distance (km) Brightness Sun altitude
Rises 22:38:39 0° 236° (SW) 3,617 9.7 4.9°
Reaches altitude 10° 22:41:53 10° 222° (SW) 2,640 8.4 4.3°
Maximum altitude 22:46:37 22° 173° (S) 1,874 6.7 3.5°
Drops below altitude 10° 22:51:18 10° 123° (ESE) 2,602 6.9 2.6°
Sets 22:54:27 0° 109° (ESE) 3,552 7.4 2.1°
